Time,TemperatureF,DewpointF,PressureIn,WindDirection,WindDirectionDegrees,WindSpeedMPH,WindSpeedGustMPH,Humidity,HourlyPrecipIn,Conditions,Clouds,dailyrainin,SolarRadiationWatts/m^2,SoftwareType,DateUTC
2013-01-31 00:01:00,28.4,17.4,30.28,NNW,328,0.0,0.0,63,0.00,,,0.00,0,Wunderground v.1.15,2013-01-31 07:01:00,
2013-01-31 00:11:00,27.3,18.8,30.28,NNW,328,0.0,0.0,70,0.00,,,0.00,0,Wunderground v.1.15,2013-01-31 07:11:00,
2013-01-31 00:21:00,28.4,19.9,30.28,NNW,327,0.0,0.0,70,0.00,,,0.00,0,Wunderground v.1.15,2013-01-31 07:21:00,
2013-01-31 00:26:00,28.4,20.2,30.27,NNW,328,0.0,0.0,71,0.00,,,0.00,0,Wunderground v.1.15,2013-01-31 07:26:00,
2013-01-31 00:36:00,28.4,20.5,30.28,NNW,328,0.0,0.0,72,0.00,,,0.00,0,Wunderground v.1.15,2013-01-31 07:36:00,
2013-01-31 00:46:00,28.7,20.1,30.27,NNW,328,0.0,0.0,70,0.00,,,0.00,0,Wunderground v.1.15,2013-01-31 07:46:00,
2013-01-31 00:56:00,29.2,20.3,30.27,NNW,328,0.0,0.0,69,0.00,,,0.00,0,Wunderground v.1.15,2013-01-31 07:56:00,
2013-01-31 01:01:00,29.2,19.9,30.27,NNW,328,0.0,0.0,68,0.00,,,0.00,0,Wunderground v.1.15,2013-01-31 08:01:00,
2013-01-31 01:11:00,27.9,19.4,30.28,NNW,327,0.0,0.0,70,0.00,,,0.00,0,Wunderground v.1.15,2013-01-31 08:11:00,
2013-01-31 01:21:00,28.5,20.0,30.27,NNW,328,0.0,0.0,70,0.00,,,0.00,0,Wunderground v.1.15,2013-01-31 08:21:00,
2013-01-31 01:26:00,28.3,19.8,30.28,NNW,328,0.0,0.0,70,0.00,,,0.00,0,Wunderground v.1.15,2013-01-31 08:26:00,
2013-01-31 01:31:00,27.3,18.5,30.28,NNW,327,0.0,0.0,69,0.00,,,0.00,0,Wunderground v.1.15,2013-01-31 08:31:00,
2013-01-31 01:41:00,26.5,19.3,30.28,NNW,328,0.0,0.0,74,0.00,,,0.00,0,Wunderground v.1.15,2013-01-31 08:41:00,
2013-01-31 01:51:00,26.0,18.2,30.29,NNW,328,0.0,0.0,72,0.00,,,0.00,0,Wunderground v.1.15,2013-01-31 08:51:00,
2013-01-31 01:56:00,26.1,19.3,30.29,NNW,328,0.0,0.0,75,0.00,,,0.00,0,Wunderground v.1.15,2013-01-31 08:56:00,
2013-01-31 02:01:00,26.4,19.2,30.28,NNW,328,0.0,0.0,74,0.00,,,0.00,0,Wunderground v.1.15,2013-01-31 09:01:00,
2013-01-31 02:11:00,27.0,20.1,30.28,NNW,327,0.0,0.0,75,0.00,,,0.00,0,Wunderground v.1.15,2013-01-31 09:11:00,
2013-01-31 02:21:00,26.9,20.0,30.27,NNW,327,0.0,0.0,75,0.00,,,0.00,0,Wunderground v.1.15,2013-01-31 09:21:00,
2013-01-31 02:31:00,26.6,20.1,30.27,NNW,327,0.0,0.0,76,0.00,,,0.00,0,Wunderground v.1.15,2013-01-31 09:31:00,
2013-01-31 02:36:00,27.1,20.5,30.27,NNW,327,0.0,0.0,76,0.00,,,0.00,0,Wunderground v.1.15,2013-01-31 09:36:00,
2013-01-31 02:41:00,27.4,20.8,30.27,NNW,327,0.0,0.0,76,0.00,,,0.00,0,Wunderground v.1.15,2013-01-31 09:41:00,
2013-01-31 02:46:00,26.7,18.9,30.27,NNW,328,0.0,0.0,72,0.00,,,0.00,0,Wunderground v.1.15,2013-01-31 09:46:00,
2013-01-31 02:51:00,26.0,19.2,30.28,NNW,327,0.0,0.0,75,0.00,,,0.00,0,Wunderground v.1.15,2013-01-31 09:51:00,
2013-01-31 03:01:00,24.7,18.2,30.28,NNW,327,0.0,0.0,76,0.00,,,0.00,0,Wunderground v.1.15,2013-01-31 10:01:00,
2013-01-31 03:11:00,25.7,19.8,30.27,NNW,328,0.0,0.0,78,0.00,,,0.00,0,Wunderground v.1.15,2013-01-31 10:11:00,
2013-01-31 03:21:00,24.4,17.9,30.28,NNW,328,0.0,0.0,76,0.00,,,0.00,0,Wunderground v.1.15,2013-01-31 10:21:00,
2013-01-31 03:26:00,24.1,18.5,30.28,NNW,328,0.0,0.0,79,0.00,,,0.00,0,Wunderground v.1.15,2013-01-31 10:26:00,
2013-01-31 03:31:00,24.4,19.1,30.28,NNW,328,0.0,0.0,80,0.00,,,0.00,0,Wunderground v.1.15,2013-01-31 10:31:00,
2013-01-31 03:36:00,24.3,19.0,30.27,NNW,328,0.0,0.0,80,0.00,,,0.00,0,Wunderground v.1.15,2013-01-31 10:36:00,
2013-01-31 03:41:00,24.0,18.7,30.27,NNW,328,0.0,0.0,80,0.00,,,0.00,0,Wunderground v.1.15,2013-01-31 10:41:00,
2013-01-31 03:46:00,24.6,19.9,30.27,NNW,327,0.0,0.0,82,0.00,,,0.00,0,Wunderground v.1.15,2013-01-31 10:46:00,
2013-01-31 03:56:00,25.5,20.2,30.26,NNW,328,0.0,0.0,80,0.00,,,0.00,0,Wunderground v.1.15,2013-01-31 10:56:00,
2013-01-31 04:01:00,25.8,20.5,30.26,NNW,328,0.0,0.0,80,0.00,,,0.00,0,Wunderground v.1.15,2013-01-31 11:01:00,
2013-01-31 04:06:00,26.0,20.4,30.26,NNW,327,0.0,0.0,79,0.00,,,0.00,0,Wunderground v.1.15,2013-01-31 11:06:00,
2013-01-31 04:11:00,26.2,20.6,30.26,NNW,328,0.0,0.0,79,0.00,,,0.00,0,Wunderground v.1.15,2013-01-31 11:11:00,
2013-01-31 04:16:00,26.1,20.5,30.26,NNW,328,0.0,0.0,79,0.00,,,0.00,0,Wunderground v.1.15,2013-01-31 11:16:00,
2013-01-31 04:26:00,26.0,20.4,30.26,NNW,328,0.0,0.0,79,0.00,,,0.00,0,Wunderground v.1.15,2013-01-31 11:26:00,
2013-01-31 04:31:00,26.1,20.2,30.25,NNW,328,0.0,0.0,78,0.00,,,0.00,0,Wunderground v.1.15,2013-01-31 11:31:00,
2013-01-31 04:41:00,24.6,18.7,30.26,NNW,328,0.0,0.0,78,0.00,,,0.00,0,Wunderground v.1.15,2013-01-31 11:41:00,
2013-01-31 04:46:00,24.0,18.4,30.26,NNW,328,0.0,0.0,79,0.00,,,0.00,0,Wunderground v.1.15,2013-01-31 11:46:00,
2013-01-31 04:51:00,23.9,18.3,30.26,NNW,328,0.0,0.0,79,0.00,,,0.00,0,Wunderground v.1.15,2013-01-31 11:51:00,
2013-01-31 04:56:00,23.9,18.6,30.26,NNW,328,0.0,0.0,80,0.00,,,0.00,0,Wunderground v.1.15,2013-01-31 11:56:00,
2013-01-31 05:01:00,23.4,18.1,30.30,NNW,327,0.0,0.0,80,0.00,,,0.00,0,Wunderground v.1.15,2013-01-31 12:01:00,
2013-01-31 05:06:00,23.5,18.5,30.29,NNW,327,0.0,0.0,81,0.00,,,0.00,0,Wunderground v.1.15,2013-01-31 12:06:00,
2013-01-31 05:16:00,23.8,18.5,30.29,NNW,328,0.0,0.0,80,0.00,,,0.00,0,Wunderground v.1.15,2013-01-31 12:16:00,
2013-01-31 05:26:00,25.2,19.9,30.29,NNW,328,0.0,0.0,80,0.00,,,0.00,0,Wunderground v.1.15,2013-01-31 12:26:00,
2013-01-31 05:36:00,25.1,19.8,30.29,NNW,327,0.0,0.0,80,0.00,,,0.00,0,Wunderground v.1.15,2013-01-31 12:36:00,
2013-01-31 05:41:00,24.7,19.1,30.29,NNW,327,0.0,0.0,79,0.00,,,0.00,0,Wunderground v.1.15,2013-01-31 12:41:00,
2013-01-31 05:46:00,24.3,19.0,30.29,NNW,328,0.0,0.0,80,0.00,,,0.00,0,Wunderground v.1.15,2013-01-31 12:46:00,
2013-01-31 05:56:00,23.1,18.1,30.30,NNW,327,0.0,0.0,81,0.00,,,0.00,0,Wunderground v.1.15,2013-01-31 12:56:00,
2013-01-31 06:01:00,22.9,18.2,30.32,NNW,328,0.0,0.0,82,0.00,,,0.00,0,Wunderground v.1.15,2013-01-31 13:01:00,
2013-01-31 06:11:00,21.6,17.0,30.33,NNW,327,0.0,0.0,82,0.00,,,0.00,0,Wunderground v.1.15,2013-01-31 13:11:00,
2013-01-31 06:16:00,22.1,17.7,30.33,NNW,327,0.0,0.0,83,0.00,,,0.00,0,Wunderground v.1.15,2013-01-31 13:16:00,
2013-01-31 06:21:00,22.3,17.9,30.33,NNW,328,0.0,0.0,83,0.00,,,0.00,0,Wunderground v.1.15,2013-01-31 13:21:00,
2013-01-31 06:31:00,23.0,18.6,30.32,NNW,328,0.0,0.0,83,0.00,,,0.00,0,Wunderground v.1.15,2013-01-31 13:31:00,
2013-01-31 06:36:00,23.1,18.7,30.32,NNW,327,0.0,0.0,83,0.00,,,0.00,0,Wunderground v.1.15,2013-01-31 13:36:00,
2013-01-31 06:46:00,23.5,19.4,30.32,NNW,328,0.0,0.0,84,0.00,,,0.00,0,Wunderground v.1.15,2013-01-31 13:46:00,
2013-01-31 06:51:00,23.2,18.8,30.32,NNW,327,0.0,0.0,83,0.00,,,0.00,0,Wunderground v.1.15,2013-01-31 13:51:00,
2013-01-31 07:01:00,23.2,19.1,30.33,NNW,328,0.0,0.0,84,0.00,,,0.00,0,Wunderground v.1.15,2013-01-31 14:01:00,
2013-01-31 07:06:00,23.2,19.1,30.34,NNW,328,0.0,0.0,84,0.00,,,0.00,0,Wunderground v.1.15,2013-01-31 14:06:00,
2013-01-31 07:11:00,23.0,18.9,30.34,NNW,327,0.0,0.0,84,0.00,,,0.00,0,Wunderground v.1.15,2013-01-31 14:11:00,
2013-01-31 07:21:00,23.4,19.3,30.33,NNW,327,0.0,0.0,84,0.00,,,0.00,7,Wunderground v.1.15,2013-01-31 14:21:00,
2013-01-31 07:31:00,23.6,19.5,30.34,NNW,328,0.0,0.0,84,0.00,,,0.00,19,Wunderground v.1.15,2013-01-31 14:31:00,
2013-01-31 07:36:00,24.3,20.2,30.34,NNW,328,0.0,0.0,84,0.00,,,0.00,26,Wunderground v.1.15,2013-01-31 14:36:00,
2013-01-31 07:41:00,25.1,20.9,30.32,NNW,328,0.0,0.0,84,0.00,,,0.00,37,Wunderground v.1.15,2013-01-31 14:41:00,
2013-01-31 07:51:00,27.4,22.9,30.32,NNW,327,0.0,0.0,83,0.00,,,0.00,77,Wunderground v.1.15,2013-01-31 14:51:00,
2013-01-31 08:01:00,29.7,24.0,30.31,NNW,328,0.0,0.0,79,0.00,,,0.00,107,Wunderground v.1.15,2013-01-31 15:01:00,
2013-01-31 08:11:00,31.8,24.1,30.30,NNW,327,0.0,0.0,73,0.00,,,0.00,146,Wunderground v.1.15,2013-01-31 15:11:00,
2013-01-31 08:16:00,32.8,24.1,30.29,NNW,328,0.0,0.0,70,0.00,,,0.00,158,Wunderground v.1.15,2013-01-31 15:16:00,
2013-01-31 08:21:00,33.2,24.8,30.28,NNW,327,0.0,0.0,71,0.00,,,0.00,165,Wunderground v.1.15,2013-01-31 15:21:00,
2013-01-31 08:26:00,33.1,24.7,30.28,NNW,328,0.0,0.0,71,0.00,,,0.00,165,Wunderground v.1.15,2013-01-31 15:26:00,
2013-01-31 08:36:00,33.6,22.7,30.29,NNW,328,0.0,0.0,64,0.00,,,0.00,192,Wunderground v.1.15,2013-01-31 15:36:00,
2013-01-31 08:46:00,34.8,22.3,30.28,NNW,328,0.0,0.0,60,0.00,,,0.00,269,Wunderground v.1.15,2013-01-31 15:46:00,
2013-01-31 08:56:00,36.3,23.3,30.29,NNW,328,0.0,0.0,59,0.00,,,0.00,265,Wunderground v.1.15,2013-01-31 15:56:00,
2013-01-31 09:06:00,36.6,22.8,30.31,NNW,328,0.0,1.0,57,0.00,,,0.00,258,Wunderground v.1.15,2013-01-31 16:06:00,
2013-01-31 09:11:00,37.0,23.6,30.31,NNW,328,0.0,0.0,58,0.00,,,0.00,265,Wunderground v.1.15,2013-01-31 16:11:00,
2013-01-31 09:21:00,38.3,23.5,30.31,NNW,327,0.0,0.0,55,0.00,,,0.00,234,Wunderground v.1.15,2013-01-31 16:21:00,
2013-01-31 09:26:00,38.4,22.3,30.31,NNW,327,0.0,0.0,52,0.00,,,0.00,234,Wunderground v.1.15,2013-01-31 16:26:00,
2013-01-31 09:36:00,39.3,23.6,30.31,NNW,327,0.0,0.0,53,0.00,,,0.00,264,Wunderground v.1.15,2013-01-31 16:36:00,
2013-01-31 09:46:00,39.7,23.5,30.31,NNW,328,0.0,0.0,52,0.00,,,0.00,279,Wunderground v.1.15,2013-01-31 16:46:00,
2013-01-31 09:51:00,40.4,25.5,30.31,NNW,327,0.0,0.0,55,0.00,,,0.00,269,Wunderground v.1.15,2013-01-31 16:51:00,
2013-01-31 09:56:00,40.7,25.8,30.31,NNW,328,0.0,2.0,55,0.00,,,0.00,257,Wunderground v.1.15,2013-01-31 16:56:00,
2013-01-31 10:01:00,40.6,25.2,30.29,NNW,328,1.0,1.0,54,0.00,,,0.00,246,Wunderground v.1.15,2013-01-31 17:01:00,
2013-01-31 10:06:00,40.9,24.6,30.29,NNW,327,1.0,1.0,52,0.00,,,0.00,243,Wunderground v.1.15,2013-01-31 17:06:00,
2013-01-31 10:11:00,41.4,24.1,30.29,NNW,328,0.0,0.0,50,0.00,,,0.00,246,Wunderground v.1.15,2013-01-31 17:11:00,
2013-01-31 10:16:00,41.8,23.5,30.28,NNW,327,0.0,0.0,48,0.00,,,0.00,250,Wunderground v.1.15,2013-01-31 17:16:00,
2013-01-31 10:26:00,43.0,23.6,30.28,NNW,328,0.0,0.0,46,0.00,,,0.00,269,Wunderground v.1.15,2013-01-31 17:26:00,
2013-01-31 10:36:00,43.4,22.9,30.28,NNW,328,0.0,0.0,44,0.00,,,0.00,309,Wunderground v.1.15,2013-01-31 17:36:00,
2013-01-31 10:46:00,44.3,20.9,30.26,NNW,328,0.0,0.0,39,0.00,,,0.00,464,Wunderground v.1.15,2013-01-31 17:46:00,
2013-01-31 10:56:00,46.5,20.9,30.24,NNW,328,0.0,0.0,36,0.00,,,0.00,487,Wunderground v.1.15,2013-01-31 17:56:00,
2013-01-31 11:06:00,47.3,21.0,30.27,NNW,328,0.0,0.0,35,0.00,,,0.00,434,Wunderground v.1.15,2013-01-31 18:06:00,
2013-01-31 11:11:00,47.9,21.5,30.27,NNW,328,0.0,0.0,35,0.00,,,0.00,439,Wunderground v.1.15,2013-01-31 18:11:00,
2013-01-31 11:21:00,48.1,21.0,30.26,NNW,328,0.0,0.0,34,0.00,,,0.00,575,Wunderground v.1.15,2013-01-31 18:21:00,
2013-01-31 11:26:00,49.3,22.8,30.25,NNW,328,0.0,0.0,35,0.00,,,0.00,679,Wunderground v.1.15,2013-01-31 18:26:00,
2013-01-31 11:31:00,49.6,21.6,30.25,NNW,328,0.0,3.0,33,0.00,,,0.00,585,Wunderground v.1.15,2013-01-31 18:31:00,
2013-01-31 11:41:00,50.6,23.2,30.24,NNW,327,0.0,0.0,34,0.00,,,0.00,584,Wunderground v.1.15,2013-01-31 18:41:00,
2013-01-31 11:46:00,51.5,23.3,30.24,NNW,328,0.0,1.0,33,0.00,,,0.00,513,Wunderground v.1.15,2013-01-31 18:46:00,
2013-01-31 11:51:00,51.4,23.2,30.24,NNW,327,0.0,0.0,33,0.00,,,0.00,526,Wunderground v.1.15,2013-01-31 18:51:00,
2013-01-31 11:56:00,52.7,23.6,30.23,NNW,328,1.0,1.0,32,0.00,,,0.00,592,Wunderground v.1.15,2013-01-31 18:56:00,
2013-01-31 12:01:00,52.8,22.2,30.23,NNW,328,1.0,1.0,30,0.00,,,0.00,666,Wunderground v.1.15,2013-01-31 19:01:00,
2013-01-31 12:11:00,53.8,23.8,30.23,NNW,327,0.0,0.0,31,0.00,,,0.00,538,Wunderground v.1.15,2013-01-31 19:11:00,
2013-01-31 12:21:00,52.8,23.7,30.22,NW,319,0.0,0.0,32,0.00,,,0.00,519,Wunderground v.1.15,2013-01-31 19:21:00,
2013-01-31 12:31:00,54.0,25.5,30.21,NW,313,0.0,0.0,33,0.00,,,0.00,573,Wunderground v.1.15,2013-01-31 19:31:00,
2013-01-31 12:41:00,54.2,26.4,30.20,NW,304,0.0,0.0,34,0.00,,,0.00,406,Wunderground v.1.15,2013-01-31 19:41:00,
2013-01-31 12:46:00,54.4,25.1,30.19,NW,305,0.0,2.0,32,0.00,,,0.00,418,Wunderground v.1.15,2013-01-31 19:46:00,
2013-01-31 12:51:00,54.1,24.9,30.19,NW,305,0.0,0.0,32,0.00,,,0.00,424,Wunderground v.1.15,2013-01-31 19:51:00,
2013-01-31 12:56:00,55.0,25.6,30.18,NW,305,0.0,0.0,32,0.00,,,0.00,462,Wunderground v.1.15,2013-01-31 19:56:00,
2013-01-31 13:01:00,55.3,25.9,30.19,NW,307,0.0,0.0,32,0.00,,,0.00,448,Wunderground v.1.15,2013-01-31 20:01:00,
2013-01-31 13:06:00,56.3,25.2,30.18,NW,307,0.0,2.0,30,0.00,,,0.00,508,Wunderground v.1.15,2013-01-31 20:06:00,
2013-01-31 13:16:00,56.2,24.3,30.18,NW,307,0.0,0.0,29,0.00,,,0.00,577,Wunderground v.1.15,2013-01-31 20:16:00,
2013-01-31 13:21:00,56.3,25.2,30.17,NW,307,0.0,0.0,30,0.00,,,0.00,512,Wunderground v.1.15,2013-01-31 20:21:00,
2013-01-31 13:26:00,56.4,24.5,30.17,NW,307,0.0,0.0,29,0.00,,,0.00,494,Wunderground v.1.15,2013-01-31 20:26:00,
2013-01-31 13:31:00,57.5,24.6,30.16,NW,307,0.0,1.0,28,0.00,,,0.00,715,Wunderground v.1.15,2013-01-31 20:31:00,
2013-01-31 13:41:00,58.1,25.1,30.16,NW,307,0.0,0.0,28,0.00,,,0.00,559,Wunderground v.1.15,2013-01-31 20:41:00,
2013-01-31 13:46:00,57.9,25.0,30.16,NW,307,0.0,0.0,28,0.00,,,0.00,534,Wunderground v.1.15,2013-01-31 20:46:00,
2013-01-31 13:51:00,58.3,24.4,30.16,NW,307,0.0,0.0,27,0.00,,,0.00,603,Wunderground v.1.15,2013-01-31 20:51:00,
2013-01-31 14:01:00,57.9,23.2,30.17,NW,307,0.0,0.0,26,0.00,,,0.00,529,Wunderground v.1.15,2013-01-31 21:01:00,
2013-01-31 14:06:00,58.2,25.2,30.16,NW,307,0.0,0.0,28,0.00,,,0.00,520,Wunderground v.1.15,2013-01-31 21:06:00,
2013-01-31 14:11:00,58.8,23.0,30.15,NW,307,0.0,0.0,25,0.00,,,0.00,476,Wunderground v.1.15,2013-01-31 21:11:00,
2013-01-31 14:16:00,58.7,23.9,30.15,NW,307,0.0,0.0,26,0.00,,,0.00,471,Wunderground v.1.15,2013-01-31 21:16:00,
2013-01-31 14:26:00,58.8,23.0,30.16,NW,307,0.0,0.0,25,0.00,,,0.00,452,Wunderground v.1.15,2013-01-31 21:26:00,
2013-01-31 14:31:00,59.0,23.2,30.16,NW,307,1.0,1.0,25,0.00,,,0.00,425,Wunderground v.1.15,2013-01-31 21:31:00,
2013-01-31 14:36:00,58.6,22.8,30.15,NW,307,1.0,1.0,25,0.00,,,0.00,311,Wunderground v.1.15,2013-01-31 21:36:00,
2013-01-31 14:41:00,58.3,22.6,30.16,NW,307,0.0,0.0,25,0.00,,,0.00,297,Wunderground v.1.15,2013-01-31 21:41:00,
2013-01-31 14:46:00,58.1,22.4,30.16,NW,307,1.0,1.0,25,0.00,,,0.00,297,Wunderground v.1.15,2013-01-31 21:46:00,
2013-01-31 14:51:00,58.3,21.6,30.16,NW,307,1.0,1.0,24,0.00,,,0.00,311,Wunderground v.1.15,2013-01-31 21:51:00,
2013-01-31 14:56:00,58.1,21.4,30.16,NW,307,0.0,1.0,24,0.00,,,0.00,336,Wunderground v.1.15,2013-01-31 21:56:00,
2013-01-31 15:06:00,59.0,22.2,30.15,NW,307,0.0,2.0,24,0.00,,,0.00,341,Wunderground v.1.15,2013-01-31 22:06:00,
2013-01-31 15:16:00,59.0,23.2,30.15,NW,307,2.0,6.0,25,0.00,,,0.00,343,Wunderground v.1.15,2013-01-31 22:16:00,
2013-01-31 15:21:00,59.0,23.2,30.15,NW,307,1.0,1.0,25,0.00,,,0.00,302,Wunderground v.1.15,2013-01-31 22:21:00,
2013-01-31 15:26:00,59.4,23.5,30.16,NW,307,1.0,1.0,25,0.00,,,0.00,283,Wunderground v.1.15,2013-01-31 22:26:00,
2013-01-31 15:31:00,59.0,22.2,30.15,NW,307,0.0,0.0,24,0.00,,,0.00,294,Wunderground v.1.15,2013-01-31 22:31:00,
2013-01-31 15:41:00,59.0,23.2,30.15,NW,307,0.0,0.0,25,0.00,,,0.00,269,Wunderground v.1.15,2013-01-31 22:41:00,
2013-01-31 15:46:00,59.0,22.2,30.15,NW,307,0.0,0.0,24,0.00,,,0.00,269,Wunderground v.1.15,2013-01-31 22:46:00,
2013-01-31 15:56:00,59.0,22.2,30.15,NW,307,0.0,1.0,24,0.00,,,0.00,264,Wunderground v.1.15,2013-01-31 22:56:00,
2013-01-31 16:01:00,59.0,21.2,30.16,NW,307,0.0,0.0,23,0.00,,,0.00,362,Wunderground v.1.15,2013-01-31 23:01:00,
2013-01-31 16:06:00,59.6,22.7,30.16,NW,307,0.0,0.0,24,0.00,,,0.00,427,Wunderground v.1.15,2013-01-31 23:06:00,
2013-01-31 16:16:00,61.1,21.9,30.15,NW,307,2.0,2.0,22,0.00,,,0.00,334,Wunderground v.1.15,2013-01-31 23:16:00,
2013-01-31 16:21:00,60.1,21.1,30.16,NW,305,2.0,4.0,22,0.00,,,0.00,258,Wunderground v.1.15,2013-01-31 23:21:00,
2013-01-31 16:26:00,59.7,20.7,30.15,NW,304,2.0,4.0,22,0.00,,,0.00,265,Wunderground v.1.15,2013-01-31 23:26:00,
2013-01-31 16:31:00,59.7,21.8,30.15,NW,304,1.0,1.0,23,0.00,,,0.00,230,Wunderground v.1.15,2013-01-31 23:31:00,
2013-01-31 16:36:00,59.6,20.7,30.15,NW,305,0.0,1.0,22,0.00,,,0.00,244,Wunderground v.1.15,2013-01-31 23:36:00,
2013-01-31 16:41:00,59.4,20.5,30.15,NW,305,0.0,0.0,22,0.00,,,0.00,178,Wunderground v.1.15,2013-01-31 23:41:00,
2013-01-31 16:46:00,59.0,20.2,30.15,NW,305,0.0,0.0,22,0.00,,,0.00,199,Wunderground v.1.15,2013-01-31 23:46:00,
2013-01-31 16:51:00,59.0,21.2,30.15,NW,304,0.0,0.0,23,0.00,,,0.00,204,Wunderground v.1.15,2013-01-31 23:51:00,
2013-01-31 16:56:00,59.0,21.2,30.15,NW,305,0.0,0.0,23,0.00,,,0.00,165,Wunderground v.1.15,2013-01-31 23:56:00,
2013-01-31 17:01:00,59.0,21.2,30.15,WNW,286,1.0,1.0,23,0.00,,,0.00,113,Wunderground v.1.15,2013-02-01 00:01:00,
2013-01-31 17:06:00,58.5,21.8,30.15,WNW,284,1.0,1.0,24,0.00,,,0.00,79,Wunderground v.1.15,2013-02-01 00:06:00,
2013-01-31 17:16:00,57.3,21.7,30.16,WNW,282,1.0,2.0,25,0.00,,,0.00,70,Wunderground v.1.15,2013-02-01 00:16:00,
2013-01-31 17:21:00,57.0,21.5,30.16,West,281,2.0,3.0,25,0.00,,,0.00,72,Wunderground v.1.15,2013-02-01 00:21:00,
2013-01-31 17:26:00,56.7,23.0,30.16,West,281,1.0,3.0,27,0.00,,,0.00,47,Wunderground v.1.15,2013-02-01 00:26:00,
2013-01-31 17:36:00,55.3,23.5,30.17,West,279,1.0,3.0,29,0.00,,,0.00,19,Wunderground v.1.15,2013-02-01 00:36:00,
2013-01-31 17:41:00,54.5,23.7,30.17,West,279,0.0,0.0,30,0.00,,,0.00,11,Wunderground v.1.15,2013-02-01 00:41:00,
2013-01-31 17:51:00,52.5,23.5,30.18,West,279,0.0,0.0,32,0.00,,,0.00,0,Wunderground v.1.15,2013-02-01 00:51:00,
2013-01-31 17:56:00,52.1,23.1,30.19,West,279,0.0,0.0,32,0.00,,,0.00,0,Wunderground v.1.15,2013-02-01 00:56:00,
2013-01-31 18:06:00,51.1,24.4,30.19,West,278,0.0,0.0,35,0.00,,,0.00,0,Wunderground v.1.15,2013-02-01 01:06:00,
2013-01-31 18:11:00,50.6,24.6,30.19,West,279,0.0,0.0,36,0.00,,,0.00,0,Wunderground v.1.15,2013-02-01 01:11:00,
2013-01-31 18:16:00,50.4,24.4,30.20,West,279,0.0,0.0,36,0.00,,,0.00,0,Wunderground v.1.15,2013-02-01 01:16:00,
2013-01-31 18:21:00,50.3,25.0,30.20,West,278,0.0,0.0,37,0.00,,,0.00,0,Wunderground v.1.15,2013-02-01 01:21:00,
2013-01-31 18:31:00,49.4,25.4,30.21,West,279,0.0,0.0,39,0.00,,,0.00,0,Wunderground v.1.15,2013-02-01 01:31:00,
2013-01-31 18:36:00,49.2,25.3,30.21,West,279,0.0,0.0,39,0.00,,,0.00,0,Wunderground v.1.15,2013-02-01 01:36:00,
2013-01-31 18:46:00,48.8,25.5,30.22,West,278,0.0,0.0,40,0.00,,,0.00,0,Wunderground v.1.15,2013-02-01 01:46:00,
2013-01-31 18:56:00,48.2,25.6,30.23,West,278,0.0,0.0,41,0.00,,,0.00,0,Wunderground v.1.15,2013-02-01 01:56:00,
2013-01-31 19:01:00,47.8,25.8,30.20,West,279,0.0,0.0,42,0.00,,,0.00,0,Wunderground v.1.15,2013-02-01 02:01:00,
2013-01-31 19:06:00,47.5,25.5,30.21,West,278,0.0,0.0,42,0.00,,,0.00,0,Wunderground v.1.15,2013-02-01 02:06:00,
2013-01-31 19:16:00,47.1,26.3,30.21,West,279,0.0,0.0,44,0.00,,,0.00,0,Wunderground v.1.15,2013-02-01 02:16:00,
2013-01-31 19:26:00,47.1,27.4,30.21,West,278,0.0,0.0,46,0.00,,,0.00,0,Wunderground v.1.15,2013-02-01 02:26:00,
2013-01-31 19:36:00,46.7,27.0,30.21,West,279,0.0,0.0,46,0.00,,,0.00,0,Wunderground v.1.15,2013-02-01 02:36:00,
2013-01-31 19:46:00,46.0,26.9,30.23,West,278,0.0,0.0,47,0.00,,,0.00,0,Wunderground v.1.15,2013-02-01 02:46:00,
2013-01-31 19:51:00,45.2,26.7,30.23,West,279,0.0,0.0,48,0.00,,,0.00,0,Wunderground v.1.15,2013-02-01 02:51:00,
2013-01-31 19:56:00,44.9,26.9,30.23,West,279,0.0,0.0,49,0.00,,,0.00,0,Wunderground v.1.15,2013-02-01 02:56:00,
2013-01-31 20:01:00,44.3,26.8,30.20,West,279,0.0,0.0,50,0.00,,,0.00,0,Wunderground v.1.15,2013-02-01 03:01:00,
2013-01-31 20:06:00,43.8,26.8,30.20,West,279,0.0,0.0,51,0.00,,,0.00,0,Wunderground v.1.15,2013-02-01 03:06:00,
2013-01-31 20:11:00,43.3,26.4,30.21,West,279,0.0,0.0,51,0.00,,,0.00,0,Wunderground v.1.15,2013-02-01 03:11:00,
2013-01-31 20:16:00,42.9,26.5,30.21,West,278,0.0,0.0,52,0.00,,,0.00,0,Wunderground v.1.15,2013-02-01 03:16:00,
2013-01-31 20:21:00,42.7,27.2,30.21,West,279,0.0,0.0,54,0.00,,,0.00,0,Wunderground v.1.15,2013-02-01 03:21:00,
2013-01-31 20:31:00,41.8,26.8,30.21,West,278,0.0,0.0,55,0.00,,,0.00,0,Wunderground v.1.15,2013-02-01 03:31:00,
2013-01-31 20:36:00,41.4,26.9,30.22,West,279,0.0,0.0,56,0.00,,,0.00,0,Wunderground v.1.15,2013-02-01 03:36:00,
2013-01-31 20:41:00,40.0,26.4,30.22,West,278,0.0,0.0,58,0.00,,,0.00,0,Wunderground v.1.15,2013-02-01 03:41:00,
2013-01-31 20:46:00,38.6,25.1,30.23,West,279,0.0,0.0,58,0.00,,,0.00,0,Wunderground v.1.15,2013-02-01 03:46:00,
2013-01-31 20:56:00,38.7,26.0,30.23,West,278,0.0,0.0,60,0.00,,,0.00,0,Wunderground v.1.15,2013-02-01 03:56:00,
2013-01-31 21:01:00,38.6,25.5,30.20,West,279,0.0,0.0,59,0.00,,,0.00,0,Wunderground v.1.15,2013-02-01 04:01:00,
2013-01-31 21:06:00,38.6,25.5,30.20,West,278,0.0,0.0,59,0.00,,,0.00,0,Wunderground v.1.15,2013-02-01 04:06:00,
2013-01-31 21:11:00,39.1,25.6,30.20,West,279,0.0,0.0,58,0.00,,,0.00,0,Wunderground v.1.15,2013-02-01 04:11:00,
2013-01-31 21:16:00,38.2,24.3,30.22,West,278,0.0,0.0,57,0.00,,,0.00,0,Wunderground v.1.15,2013-02-01 04:16:00,
2013-01-31 21:21:00,38.1,25.4,30.21,West,279,0.0,0.0,60,0.00,,,0.00,0,Wunderground v.1.15,2013-02-01 04:21:00,
2013-01-31 21:26:00,38.3,25.2,30.21,West,279,0.0,0.0,59,0.00,,,0.00,0,Wunderground v.1.15,2013-02-01 04:26:00,
2013-01-31 21:36:00,37.7,25.1,30.21,West,278,0.0,0.0,60,0.00,,,0.00,0,Wunderground v.1.15,2013-02-01 04:36:00,
2013-01-31 21:41:00,36.7,25.3,30.21,West,279,0.0,0.0,63,0.00,,,0.00,0,Wunderground v.1.15,2013-02-01 04:41:00,
2013-01-31 21:46:00,35.7,24.7,30.22,West,279,0.0,0.0,64,0.00,,,0.00,0,Wunderground v.1.15,2013-02-01 04:46:00,
2013-01-31 21:51:00,35.4,24.8,30.22,West,279,0.0,0.0,65,0.00,,,0.00,0,Wunderground v.1.15,2013-02-01 04:51:00,
2013-01-31 21:56:00,35.3,25.1,30.22,West,279,0.0,0.0,66,0.00,,,0.00,0,Wunderground v.1.15,2013-02-01 04:56:00,
2013-01-31 22:01:00,35.7,25.1,30.19,West,279,0.0,0.0,65,0.00,,,0.00,0,Wunderground v.1.15,2013-02-01 05:01:00,
2013-01-31 22:06:00,34.8,23.9,30.20,West,278,0.0,0.0,64,0.00,,,0.00,0,Wunderground v.1.15,2013-02-01 05:06:00,
2013-01-31 22:11:00,33.7,23.9,30.22,West,278,0.0,0.0,67,0.00,,,0.00,0,Wunderground v.1.15,2013-02-01 05:11:00,
2013-01-31 22:16:00,33.5,24.1,30.21,West,279,0.0,0.0,68,0.00,,,0.00,0,Wunderground v.1.15,2013-02-01 05:16:00,
2013-01-31 22:26:00,33.7,24.3,30.21,West,279,0.0,0.0,68,0.00,,,0.00,0,Wunderground v.1.15,2013-02-01 05:26:00,
2013-01-31 22:36:00,31.7,23.4,30.23,West,279,0.0,0.0,71,0.00,,,0.00,0,Wunderground v.1.15,2013-02-01 05:36:00,
2013-01-31 22:46:00,32.1,24.4,30.23,West,279,0.0,0.0,73,0.00,,,0.00,0,Wunderground v.1.15,2013-02-01 05:46:00,
2013-01-31 22:51:00,32.8,25.4,30.22,West,279,0.0,0.0,74,0.00,,,0.00,0,Wunderground v.1.15,2013-02-01 05:51:00,
2013-01-31 23:01:00,33.7,25.6,30.20,West,279,0.0,0.0,72,0.00,,,0.00,0,Wunderground v.1.15,2013-02-01 06:01:00,
2013-01-31 23:06:00,33.7,25.3,30.19,West,278,0.0,0.0,71,0.00,,,0.00,0,Wunderground v.1.15,2013-02-01 06:06:00,
2013-01-31 23:11:00,33.7,25.3,30.20,West,279,0.0,0.0,71,0.00,,,0.00,0,Wunderground v.1.15,2013-02-01 06:11:00,
2013-01-31 23:16:00,33.9,25.5,30.20,West,278,0.0,0.0,71,0.00,,,0.00,0,Wunderground v.1.15,2013-02-01 06:16:00,
2013-01-31 23:26:00,34.1,25.3,30.19,West,279,0.0,0.0,70,0.00,,,0.00,0,Wunderground v.1.15,2013-02-01 06:26:00,
2013-01-31 23:31:00,33.9,25.1,30.19,West,279,0.0,0.0,70,0.00,,,0.00,0,Wunderground v.1.15,2013-02-01 06:31:00,
2013-01-31 23:36:00,32.6,23.6,30.20,West,278,0.0,0.0,69,0.00,,,0.00,0,Wunderground v.1.15,2013-02-01 06:36:00,
2013-01-31 23:46:00,32.2,24.8,30.20,West,278,0.0,0.0,74,0.00,,,0.00,0,Wunderground v.1.15,2013-02-01 06:46:00,
2013-01-31 23:56:00,31.9,24.2,30.20,West,278,0.0,0.0,73,0.00,,,0.00,0,Wunderground v.1.15,2013-02-01 06:56:00,